Regional Weather Roundup
Issued by NWS Cleveland, OH

Home | Current Version | Previous Version | Graphics & Text | Print | Product List | Glossary On
Versions: 1 2 3 4 5 6 7 8 9 10 11 12 13 14 15 16 17 18 19 20 21 22 23 24 25 26 27 28 29 30 31 32 33 34 35 36 37 38 39 40 41 42 43 44 45 46 47 48 49 50
336
ASUS41 KCLE 081900
RWRCLE
OHIO REGIONAL WEATHER ROUNDUP
NATIONAL WEATHER SERVICE WILMINGTON, OH
200 PM EST MON FEB 08 2016

NOTE: "FAIR" INDICATES FEW OR NO CLOUDS BELOW 12,000 FEET WITH NO
SIGNIFICANT WEATHER AND/OR OBSTRUCTIONS TO VISIBILITY.

OHZ001>008-015>018-024>027-034-035-043-044-082000-
   NORTHWEST OHIO

CITY           SKY/WX    TMP DP  RH WIND       PRES   REMARKS
DEFIANCE       CLOUDY    42  29  59 W8        29.58F
FINDLAY        CLOUDY    42  27  55 W8        29.56F
TOLEDO EXPRESS PTSUNNY   44  26  49 W10       29.56F
TOLEDO EXEC    FAIR      43  26  51 NW7       29.58F
LIMA           CLOUDY    39  30  70 W12       29.57F
$$

OHZ009>014-019>023-028>033-038-089-082000-
   NORTHEAST OHIO

CITY           SKY/WX    TMP DP  RH WIND       PRES   REMARKS
CLE-HOPKINS    SNOW      33  31  92 CALM      29.58F VSB 1/4
CLE-LAKEFRONT  SNOW      34  32  92 CALM      29.55F VSB 1/2
CUY CO. ARPT   LGT SNOW  34  32  93 CALM      29.55F VSB 3/4
LORAIN-ELYRIA  LGT SNOW  33  31  92 NW13      29.56F FOG     WCI  24
ASHTABULA      LGT RAIN  37  32  82 S10G20    29.56F
AKRON-CANTON   LGT SNOW  33  31  92 SW6       29.54F VSB 1   WCI  28
WOOSTER        LGT SNOW  33  31  92 W6        29.55S VSB 1   WCI  28
MANSFIELD      LGT SNOW  33  32  96 NW7       29.55F FOG     WCI  27
YOUNGSTOWN     LGT RAIN  36  33  89 SE6       29.54F
$$

OHZ042-051>053-060>062-070>072-077>081-082000-
  SOUTHWEST OHIO

CITY           SKY/WX    TMP DP  RH WIND       PRES   REMARKS
CINC-COVINGTON SNOW      33  32  96 W8        29.62F VSB 1/2 WCI  26
CINC-LUNKEN    FAIR      40  31  70 W8        29.63F
HAMILTON       FAIR      43  28  55 W9        29.63F
DAYTON         NOT AVBL
WRIGHT-PAT AFB NOT AVBL
DAYTON GENERAL PTSUNNY   38  31  76 W9        29.59F
WILMINGTON     CLOUDY    34  32  92 W8        29.60F FOG     WCI  27
$$

OHZ036-037-039>041-045>050-054>059-063>069-073>076-082>088-082000-
  CENTRAL AND SOUTHEAST OHIO

CITY           SKY/WX    TMP DP  RH WIND       PRES   REMARKS
COLUMBUS       CLOUDY    37  37 100 CALM      29.58F
OSU AIRPORT    LGT RAIN  37  32  82 CALM      29.57F
BOLTON FIELD   NOT AVBL
RICKENBACK AFB NOT AVBL
NEWARK         CLOUDY    38  31  76 W7        29.57F
MARION         CLOUDY    39  31  72 CALM      29.57F
LANCASTER      LGT SNOW  36  33  89 SW8       29.60S FOG
ZANESVILLE     LGT SNOW  36  33  89 SW7       29.58F FOG
NEW PHILLY     CLOUDY    35  33  92 S5        29.56F
$$




USA.gov is the U.S. government's official web portal to all federal, state and local government web resources and services.